[[{"header":{"parameterUnit":"m.s-1","parameterCategory":1,"la1":30.2992,"la2":30.254,"lo1":-89.0895,"lo2":-89.0443,"dy":0.0025,"dx":0.0025,"nx":19,"ny":19,"refTime":"2026-04-25T03:00:00:Z","depth":0,"parameterNumber":2,"parameterNumberName":"U-component_of_WINDS"},"data":[0,0,0,-1.0063,-1.0061,-0.9959,-0.9959,-0.9847,-0.9847,0,0,0,0,0,0,0,0,0,0,0,-1.0106,-1.0106,-1.0063,-1.0061,-0.9959,-0.9959,-0.9848,-0.9847,0,0,0,0,0,0,0,0,0,0,0,-1.0106,-1.0106,-1.0106,-1.0061,-0.9959,-0.9959,-0.9848,-0.9918,0,0,0,0,0,0,0,0,0,0,-1.0013,-1.0066,-1.0106,-1.0106,-1.006,-0.9959,-0.9959,-0.9921,-0.9913,-0.9902,0,-0.9897,0,-0.987,-0.984,-0.984,0,0,0,-1.0051,-1.0072,-1.0033,-1.0106,-1.006,-0.996,-1.0002,-0.9916,-0.9908,-0.9893,-0.9895,-0.989,-0.9868,-0.984,-0.9839,-0.9811,-0.9811,0,0,-1.0057,-1.0094,-1.0039,-1.0028,-1.0046,-1.0006,-0.9999,-0.9911,-0.9916,-0.9894,-0.9887,-0.9866,-0.9839,-0.9839,-0.981,-0.9811,0,0,0,-1.008,-1.0099,-1.0061,-1.0034,-1.0014,-1.0003,-0.9996,-0.9919,-0.9904,-0.9886,-0.9865,-0.9839,-0.9838,-0.981,-0.9811,-0.9863,0,0,0,-1.0083,-1.0112,-1.0065,-1.0086,-1.0016,-0.9966,-1.0007,-0.991,-0.9899,-0.9866,-0.9839,-0.9837,-0.981,-0.981,-0.9861,-0.9882,0,0,0,-1.0108,-1.0115,-1.0105,-1.0089,-1.0046,-0.9966,-0.9945,-0.9907,-0.9887,-0.984,-0.9836,-0.9809,-0.981,-0.9859,-0.9879,-0.9886,0,0,0,-1.0146,-1.0152,-1.0106,-1.0105,-1.0047,-1.0,-0.9946,-0.9908,-0.9874,-0.9838,-0.981,-0.9811,-0.9858,-0.9876,-0.9884,-0.9899,-0.9908,0,0,-1.0175,-1.0157,-1.0153,-1.0109,-1.008,-1.0013,-0.999,-0.9923,-0.9884,-0.9837,-0.9836,-0.9862,-0.9878,-0.9885,-0.9949,-0.9958,0,0,0,-1.0175,-1.0173,-1.0157,-1.0127,-1.0076,-1.0035,-0.9967,-0.9942,-0.9901,-0.9868,-0.9865,-0.9874,-0.9876,-0.9881,-0.9888,-0.9888,-0.9815,-0.9815,-0.9814,-1.0269,-1.0219,-1.0209,-1.0147,-1.0119,-1.0049,-1.0021,-0.9976,-0.9933,-0.9934,-0.9919,-0.9965,-0.9972,-0.9977,-0.9977,-0.9923,-0.9923,-0.9923,-0.9923,-1.0306,-1.0295,-1.0239,-1.0209,-1.0156,-1.0131,-1.0064,-1.0035,-1.0003,-0.9971,-0.9971,-0.9941,-0.9988,-0.9985,-0.9927,-0.9926,-0.9926,-0.9926,-0.9925,-1.0362,-1.0348,-1.0318,-1.0269,-1.0237,-1.0174,-1.0146,-1.0098,-1.0053,-1.0053,-1.0033,-1.0032,-1.0025,-1.0047,-1.0047,-1.0047,-1.0047,-1.0047,-1.0047,-1.0432,-1.0396,-1.0379,-1.0326,-1.0301,-1.0261,-1.0191,-1.0164,-1.0123,-1.009,-1.009,-1.0047,-1.0001,-0.9991,-1.005,-1.0049,-1.0049,-1.0049,-1.0049,-1.0488,-1.0468,-1.0442,-1.0416,-1.035,-1.0321,-1.0261,-1.021,-1.0181,-1.0169,-1.0126,-1.01,-1.0079,-1.0073,-1.0064,-1.0137,-1.0137,-1.0137,-1.0137,-1.0536,-1.052,-1.0482,-1.0445,-1.0402,-1.0345,-1.0316,-1.0262,-1.0202,-1.0181,-1.0163,-1.0147,-1.0144,-1.0124,-1.0117,-1.0108,-1.0191,-1.0191,-1.0191,-1.0568,-1.0546,-1.0531,-1.0473,-1.0418,-1.0372,-1.0343,-1.0301,-1.0229,-1.0192,-1.0163,-1.0161,-1.0135,-1.0129,-1.0092,-1.0082,-1.0065,0,0]},{"header":{"parameterUnit":"m.s-1","parameterCategory":1,"la1":30.2992,"la2":30.254,"lo1":-89.0895,"lo2":-89.0443,"dy":0.0025,"dx":0.0025,"nx":19,"ny":19,"refTime":"2026-04-25T03:00:00:Z","depth":0,"parameterNumber":3,"parameterNumberName":"V-component_of_WINDS"},"data":[0,0,0,3.8943,3.8944,3.8965,3.8965,3.9,3.9,0,0,0,0,0,0,0,0,0,0,0,3.8942,3.8942,3.8943,3.8944,3.8965,3.8965,3.9,3.9,0,0,0,0,0,0,0,0,0,0,0,3.8942,3.8942,3.8943,3.8944,3.8965,3.8965,3.9,3.8981,0,0,0,0,0,0,0,0,0,0,3.8959,3.8963,3.8942,3.8943,3.8944,3.8965,3.8965,3.898,3.8982,3.8994,0,3.9006,0,3.9004,3.9003,3.9003,0,0,0,3.8939,3.8961,3.8962,3.8943,3.8944,3.8965,3.8954,3.8981,3.8983,3.8997,3.9007,3.9008,3.9005,3.9004,3.9004,3.909,3.9091,0,0,3.8938,3.8948,3.896,3.8964,3.8962,3.8953,3.8955,3.8982,3.8993,3.9007,3.9008,3.9005,3.9004,3.9004,3.9089,3.909,0,0,0,3.8938,3.8947,3.8948,3.8963,3.8966,3.8954,3.8956,3.8992,3.8991,3.9009,3.9006,3.9004,3.9005,3.9089,3.909,3.9131,0,0,0,3.8937,3.8947,3.8947,3.8954,3.8966,3.8979,3.8965,3.8989,3.8992,3.9006,3.9004,3.9005,3.9088,3.9089,3.9128,3.9148,0,0,0,3.8939,3.8947,3.8952,3.8954,3.8964,3.8979,3.898,3.899,3.8991,3.9003,3.9005,3.9088,3.9089,3.9126,3.9144,3.9176,0,0,0,3.8943,3.8986,3.8953,3.9,3.8964,3.9004,3.8979,3.9008,3.9024,3.9004,3.9088,3.909,3.9125,3.9142,3.9173,3.9204,3.9218,0,0,3.9003,3.8993,3.902,3.8992,3.9041,3.9,3.9055,3.9059,3.905,3.9077,3.9079,3.9129,3.9144,3.9175,3.9289,3.93,0,0,0,3.9043,3.9063,3.9073,3.909,3.9096,3.9103,3.9098,3.91,3.9123,3.9066,3.9148,3.9156,3.9174,3.9189,3.9198,3.9213,3.9096,3.9096,3.9096,3.9141,3.913,3.9175,3.9167,3.9183,3.918,3.9192,3.9194,3.9175,3.9195,3.9203,3.9274,3.9292,3.9298,3.9315,3.9218,3.9218,3.9218,3.9218,3.9228,3.9256,3.9234,3.9269,3.9258,3.9287,3.9286,3.9272,3.9298,3.9266,3.9281,3.9248,3.9311,3.9325,3.9221,3.9221,3.922,3.922,3.922,3.9292,3.9304,3.9307,3.9332,3.9353,3.9343,3.937,3.9357,3.9345,3.936,3.9369,3.9368,3.9367,3.9365,3.9365,3.9366,3.9366,3.9366,3.9366,3.9357,3.936,3.9385,3.9398,3.9408,3.9421,3.9419,3.9429,3.9437,3.9425,3.9425,3.9407,3.9319,3.9298,3.937,3.9369,3.9369,3.9368,3.9368,3.9452,3.943,3.9469,3.948,3.9495,3.9518,3.9502,3.9524,3.953,3.9544,3.9523,3.946,3.9449,3.9441,3.9424,3.9524,3.9524,3.9524,3.9524,3.9507,3.9501,3.954,3.9559,3.9576,3.9567,3.9613,3.9613,3.9609,3.9612,3.9596,3.9571,3.9564,3.9558,3.9548,3.9531,3.9657,3.9657,3.9657,3.9566,3.9561,3.9603,3.9601,3.9612,3.9623,3.9666,3.9689,3.9679,3.9662,3.9615,3.961,3.957,3.9558,3.954,3.9524,3.9494,0,0]}]]